264  
ASUS42 KCHS 271327  
RWRCHS  
 
REGIONAL WEATHER ROUNDUP  
NATIONAL WEATHER SERVICE CHARLESTON SC  
900 AM EDT TUE JUN 27 2017  
 
NOTE: "FAIR" INDICATES FEW OR NO CLOUDS BELOW 12,000 FEET WITH NO  
SIGNIFICANT WEATHER AND/OR S TO VISIBILITY
.  
 
NOT ALL STATIONS ARE QUALITY CONTROLLED. USE DATA WITH CAUTION...  
ESPECIALLY DEWPOINT OBSERVATIONS.  
 
SCZ027-030-031-034>040-042>050-271400-   
..SOUTHEAST SOUTH CAROLINA
 
 
 
CITY SKY/WX TMP DP RH WIND PRES REMARKS
 
N CHARLESTON MOSUNNY 80 67 64 CALM 30.04R  
WATERFRONT PRK N/A 78 68 71 VRB2 30.01S  
JOHNS ISLAND FAIR 81 70 69 N5 30.04S  
PINOPOLIS N/A 79 68 69 VRB2 29.97R  
MONCKS CORNER FAIR 77 66 69 CALM 30.05R  
SUMMERVILLE FAIR 77 68 73 CALM 30.06R  
BEAUFORT MCAS MOSUNNY 80 73 79 CALM 30.04R  
BEAUFORT ARPT FAIR 79 70 73 CALM 30.04R  
HILTON HEAD IS PTSUNNY 81 72 74 N6 30.04R  
WALTERBORO MOSUNNY 77 68 73 CALM 30.06R  
ALLENDALE FAIR 77 70 78 CALM 30.04S  
   
..SOUTHERN MIDLANDS AND PEE DEE
 
 
 
CITY SKY/WX TMP DP RH WIND PRES REMARKS
 
GEORGETOWN FAIR 77 64 65 CALM 30.06S  
KINGSTREE FAIR 75 64 69 CALM 30.05R  
ORANGEBURG SUNNY N/A N/A N/A MISG 30.05S  
BARNWELL FAIR 79 70 73 CALM 30.06R  
AIKEN FAIR 75 63 64 W6 30.09S  
MANNING FAIR 75 70 83 NW6 30.05R  
COLUMBIA CLOUDY 75 65 70 CALM 30.04R  
SUMTER PTSUNNY 75 64 69 SW2 30.03R  
FLORENCE SUNNY 76 65 68 W3 30.04S  
MYRTLE BEACH SUNNY 75 64 69 NW6 30.05R  
N MYRTLE BEACH CLOUDY 75 65 70 CALM 30.04R  
 

 
 
GAZ063-065-086>088-099>101-113>116-118-119-134>141-150-271400-   
..SOUTHEAST GEORGIA
 
 
 
CITY SKY/WX TMP DP RH WIND PRES REMARKS
 
SAVANNAH ARPT CLOUDY 78 71 79 CALM 30.05R  
HUNTER AAF MOSUNNY 79 73 83 CALM 30.02R  
FORT STEWART NOT AVBL  
STATESBORO MOSUNNY 78 78 100 N3 30.05S  
SYLVANIA MOSUNNY 78 74 87 CALM 30.06S  
CLAXTON PTSUNNY 78 73 85 CALM 30.05R  
   
..CSRA...CENTRAL AND FAR SOUTHEAST GEORGIA
 
 
 
CITY SKY/WX TMP DP RH WIND PRES REMARKS
 
THOMSON MOSUNNY 73 61 66 NE3 30.12R  
AUGUSTA-BUSH SUNNY 77 68 73 CALM 30.05R  
AUGUSTA-DANIEL PTSUNNY 76 61 59 NW3 30.07R  
SWAINSBORO FAIR 77 72 83 N3 30.07R  
VIDALIA MOSUNNY 79 73 83 CALM 30.06R  
EASTMAN PTSUNNY 78 65 64 CALM 30.08S  
HAZLEHURST FAIR 80 77 90 CALM 30.04S  
ALMA MOSUNNY 76 73 91 CALM 30.04R  
WAYCROSS PTSUNNY 79 79 100 NE5 30.04S  
JESUP CLOUDY 77 72 83 NE3 30.04S FOG  
BAXLEY PTSUNNY 77 77 100 NE3 30.04S  
BRUNSWICK MOSUNNY 79 77 94 N6 30.03F  
SAINT SIMONS MOSUNNY 80 76 87 N8 30.02R  
 

 
 
SCZ027-028-034-036>038-045-046-048>050-GAZ119-141-271400-   
..LAKE AND SUPPLEMENTAL COASTAL OBSERVATIONS
 
 
 
STATION/POSITION TIME TEMP WIND PRES WAVE SWELL
 
AIR SEA DIR/SP/G HT/PER HT/PER/DIR  
(UTC) (F) (DEG/KT/KT) (MB) (FT/S) (FT/S/D)  
WINYAH BAY 1245 76 330/ 2 1017.0S  
LAKE MURRAY 1220 74 280/ 5/ 6 1016.6  
ACE BASIN NERRS 1245 79 CALM 1017.0S  
FORT PULASKI 1300 78 84 30/ 3/ 4 1017.5  
SAPELO ISLAND 1300 79 20/ 6 1017.0  
 

 
 
ANZ835-935-AMZ111-154-330-350-352-354-370-450-454-472-271400-   
..C-MAN AND BUOY OBSERVATIONS
 
 
 
STATION/POSITION TIME TEMP WIND PRES WAVE SWELL
 
AIR SEA DIR/SP/G HT/PER HT/PER/DIR  
(UTC) (F) (DEG/KT/KT) (MB) (FT/S) (FT/S/D)  
BUOY 41004 1310 79 81 30/ 10/ 12 1016.8  
BUOY 41008 1250 76 81 110/ 8/ 10 1016.7R 2/ 8 2/130/ 8  
FOLLY BEACH CMAN 1300 79 360/ 3/ 4 1017.7R  
CAPERS NEARSHORE 1308 85 83 20/ 8/ 10 1017.1R  
FRIPP NEARSHORE 1308 80 83 50/ 6/ 8 1016.8R  
 
 
STATION/POSITION TIME TEMP WIND PRES WAVE SWELL
 
AIR SEA DIR/SP/G HT/PER HT/PER/DIR  
(UTC) (F) (DEG/KT/KT) (MB) (FT/S) (FT/S/D)  
5E ST. MARYS GA 1300 80 N/A 2/ 8  
FRYING PAN BUOY 1310 78 80 350/ 10/ 12 1016.8  
BUOY 41025 1250 77 81 350/ 8/ 10 1016.1F 2/ 8 2/ 70/ 8  
CAPE LOOKOUT NC 1300 77 330/ 7/ 9 1016.4S  
BUOY 41002 1250 76 80 240/ 12/ 14 1016.7R 4/ 6 2/130/ 7  
BUOY 41010 1310 83 83 210/ 12/ 14 1016.5  
ST AUGUSTINE FL 1300 76 78 360/ 5/ 6 1017.0R  
 

 
 
 
CLICK HERE TO GO TO PREVIOUS BULLETINS.

The Nexlab SC Page
The Nexlab GA Page Main Text Page